Weather History for FBFT - September, 2013

Change the Weather History Date:

Thursday, September 19, 2013

  Actual Average (WUND) Record (WUND)
Temperature  
Mean Temperature 78 °F -  
Max Temperature 95 °F 86 °F - (-1)
Min Temperature 60 °F 59 °F - (-1)
Cooling Degree Days 12    
Growing Degree Days 28 (Base 50)    
Moisture  
Dew Point 41 °F    
Average Humidity 26    
Maximum Humidity 48    
Minimum Humidity 8    
Precipitation  
Precipitation 0.00 in - - ()
Sea Level Pressure  
Sea Level Pressure 29.95 in    
Wind  
Wind Speed 6 mph ()    
Max Wind Speed 16 mph    
Max Gust Speed -    
Visibility 6.0 miles    
Events      
Averages and records for this station are not official NWS values.
T = Trace of Precipitation, MM = Missing Value Source: Averaged Metar Reports

Daily Weather History Graph

Daily Weather History Graph

Search for Another Location

Airport or City:

Trip Planner

Search our weather history database for the weather conditions in past years. The results will help you decide how hot, cold, wet, or windy it might be!

Date:

Astronomy

Sep. 19, 2013 Rise Set
Actual Time 6:02 AM CAT 6:05 PM CAT
Civil Twilight 5:40 AM CAT 6:27 PM CAT
Nautical Twilight 5:14 AM CAT 6:53 PM CAT
Astronomical Twilight 4:48 AM CAT 7:19 PM CAT
Moon 6:12 PM CAT (9/19) 5:41 AM CAT (9/19)
Length of Visible Light 12h 47m
Length of Day
12h 02m
Full, 100% of the Moon is Illuminated
Sep 19
Full
Sep 19
Full
Sep 27
Last Quarter
Oct 5
New
Oct 12
First Quarter

Hourly Weather History & Observations

Time (CAT) Temp. Dew Point Humidity Pressure Visibility Wind Dir Wind Speed Gust Speed Precip Events Conditions
12:00 AM 68.0 °F 42.8 °F 40% 30.04 in - SE 6.9 mph - N/A   Clear
3:00 AM 71.6 °F 42.8 °F 35% 29.98 in - NE 5.8 mph - N/A   Clear
4:00 AM 64.4 °F 42.8 °F 45% 29.98 in - NNW 3.5 mph - N/A   Clear
5:00 AM 60.8 °F 41.0 °F 48% 30.01 in - North 5.8 mph - N/A   Clear
6:00 AM 60.8 °F 35.6 °F 39% 30.01 in - North 6.9 mph - N/A   Clear
7:00 AM 64.4 °F 41.0 °F 42% 30.01 in - North 5.8 mph - N/A   Clear
8:00 AM 77 °F 45 °F 21%  in 6 mi NNW 15.0 mph - -   Partly Cloudy
8:00 AM 77.0 °F 44.6 °F 32% 30.04 in - NNW 15.0 mph - N/A   Clear
9:00 AM 84.2 °F 48.2 °F 29% 30.04 in - North 16.1 mph - N/A   Clear
10:00 AM 89.6 °F 46.4 °F 22% 30.04 in - NNW 13.8 mph - N/A   Clear
11:00 AM 91.4 °F 44.6 °F 20% 30.01 in - NE 3.5 mph - N/A   Clear
12:00 PM 93.2 °F 39.2 °F 15% 29.98 in - NE 3.5 mph - N/A   Clear
1:00 PM 95.0 °F 39.2 °F 14% 29.95 in - SE 4.6 mph - N/A   Clear
2:00 PM 94 °F 40 °F 8%  in 6 mi NE 8.1 mph - -   Partly Cloudy
2:00 PM 95.0 °F 39.2 °F 14% 29.92 in - NE 8.1 mph - N/A   Clear
3:00 PM 95.0 °F 39.2 °F 14% 29.86 in - Variable 2.3 mph - N/A   Clear
4:00 PM 95.0 °F 39.2 °F 14% 29.86 in - ESE 6.9 mph - N/A   Clear
5:00 PM 93.2 °F 37.4 °F 14% 29.86 in - East 6.9 mph - N/A   Clear
6:00 PM 91.4 °F 35.6 °F 14% 29.86 in - NNE 4.6 mph - N/A   Clear
7:00 PM 86.0 °F 42.8 °F 22% 29.89 in - NNE 3.5 mph - N/A   Clear
8:00 PM 80.6 °F 42.8 °F 26% 29.86 in - NE 3.5 mph - N/A   Clear
9:00 PM 77.0 °F 39.2 °F 26% 29.92 in - Variable 2.3 mph - N/A   Clear
10:00 PM 71.6 °F 39.2 °F 31% 29.92 in - NW 1.2 mph - N/A   Clear
11:00 PM 69.8 °F 41.0 °F 35% 29.92 in - ESE 3.5 mph - N/A   Clear